Location: Plzen
(49.7500°N, 13.3670°E)
Time: 04:25:42
(UTC+02:00)

ISS - Pass Details

Date: 19 May 2021
Orbit: 417 x 422 km, 51.6° (Epoch: 13 June)

Event Time Altitude Azimuth Distance (km) Brightness Sun altitude
Rises 00:29:42 0° 282° (WNW) 2,368 0.3 -20.1°
Reaches altitude 10° 00:31:49 10° 285° (WNW) 1,504 -0.7 -20.1°
Maximum altitude 00:35:11 68° 9° (N) 458 -3.5 -20.2°
Enters shadow 00:36:17 39° 80° (E) 653 -2.8 -20.2°
